Weather in Roza

Russia / Chelyabinsk Oblast     54°54′56″N   61°27′26″E
temp.,
°C
wind,
m/s
gust,
m/s
humid.,
%
clouds,
%
prec.,
mm/h
press.,
hPa
HPBL,
m
19 june, sat
sat1923:00+11nw335734 0.0 102028
02:00+9wnw34628 0.0 102057
05:00+9nw5116398 0.0 1020286
08:00+14nnw61053100 0.0 1020812
11:00+15wnw6749100 0.0 10201034
14:00+15wnw71165100 0.0 1018923
17:00+15wnw71380100 0.1 1017878
20:00+14wnw61376100 0.1 1016622
20 june, sun
sun2023:00+13wsw51292100 1.7 1014365
02:00+15wsw61394100 2.6 1011357
05:00+17wnw8179156 3.2 1010593
08:00+19nw9138380 0.3 10101042
11:00+22nw1015565 0.4 10101918
14:00+22nnw914330 0.0 10112538
17:00+21nnw814370 0.0 10132422
20:00+17nnw915400 0.0 1014988
21 june, mon
mon2123:00+14nnw91536100 0.0 1016736
02:00+12nnw714450 0.0 1018543
05:00+10nnw714550 0.0 1019556
08:00+12nnw8125241 0.0 10211046
11:00+16nnw810455 0.0 10211411
14:00+18n79373 0.0 10211863
17:00+19n683616 0.0 10211947
20:00+16ene2256100 0.0 102121
22 june, tue
tue2223:00+13sw3354100 0.0 102142
02:00+14w3350100 0.0 102156
05:00+14sw235073 0.0 102051
08:00+17w245872 0.0 1019236
11:00+17w2271100 0.1 101880
14:00+21ne236559 0.4 1017575
17:00+23ne34665 1.8 1015917
20:00+20e358362 0.7 1015150
23 june, wed
wed2323:00+16ne489160 1.2 1017296
02:00+14nne378868 0.0 1019267
05:00+12nne37906 0.0 1021186
08:00+14ne347082 0.0 1022387
11:00+18ne334562 0.0 10221437
14:00+20ne23385 0.0 10211868
17:00+21n233549 0.0 10201822
20:00+19se23565 0.0 101946